U of Miami Health System FL US WEATHERSTEM current weather conditions

sailwx.info

Wind from 045 at 9 knots gusting 25

Air temperature 27.8° C
Dewpoint 21.8° C

Last reported at 2019-Sep-22 16:00 UTC.
Time now 2019-Sep-22 16:55 UTC

Location: N 25°47' W 080°13'.
View on Google Maps.

See reports from other nearby stations

  
Tides and Currents Weather Stations Pressure Air Temp Water Temp Dewpoint Dewpoint Depression Visibility Wind Speed Wind Dir Waves Ship Positions
date/time (UTC)wind fromknots sea level pressurealtimeterstation pressurevisibilityair tempwater tempwave heightnotes
2019-Sep-22 16:00 045 9 gusting 25 27.8
2019-Sep-22 15:50 061 14 gusting 24 27.7
2019-Sep-22 15:40 061 19 gusting 25 27.7
2019-Sep-22 15:30 074 17 gusting 26 27.7
2019-Sep-22 15:20 084 18 gusting 26 27.3
2019-Sep-22 15:10 053 19 gusting 27 27.2
2019-Sep-22 15:00 048 17 gusting 26 27.2
2019-Sep-22 14:50 073 18 gusting 28 27.3
2019-Sep-22 14:40 061 15 gusting 27 27.2
2019-Sep-22 14:30 046 15 gusting 27 27.1
2019-Sep-22 14:20 065 9 gusting 30 27.0
2019-Sep-22 14:10 060 21 gusting 23 27.0
2019-Sep-22 14:00 061 13 gusting 23 27.1
2019-Sep-22 13:50 051 18 gusting 24 27.2
2019-Sep-22 13:40 097 6 gusting 25 27.1
2019-Sep-22 13:30 053 20 gusting 27 27.0
2019-Sep-22 13:20 059 11 gusting 25 27.0
2019-Sep-22 13:10 084 13 gusting 28 27.0
2019-Sep-22 13:00 055 22 gusting 25 27.0
2019-Sep-22 12:50 038 15 gusting 22 26.9
2019-Sep-22 12:40 063 18 gusting 24 26.8
2019-Sep-22 12:30 053 20 gusting 25 26.8
2019-Sep-22 12:20 040 11 gusting 27 26.7
2019-Sep-22 12:10 045 15 gusting 19 26.6
2019-Sep-22 12:00 063 18 gusting 26 26.6
2019-Sep-22 11:50 069 17 gusting 26 26.4
2019-Sep-22 11:30 068 17 gusting 26 26.2
2019-Sep-22 11:20 063 21 gusting 25 26.2
2019-Sep-22 11:10 051 21 gusting 28 26.2
2019-Sep-22 11:00 051 16 gusting 32 26.2
2019-Sep-22 10:50 051 21 gusting 26 26.3
2019-Sep-22 10:40 069 19 gusting 26 26.2
2019-Sep-22 10:30 056 21 gusting 27 26.2
2019-Sep-22 10:20 042 12 gusting 26 26.2
2019-Sep-22 10:00 060 13 gusting 26 26.2
2019-Sep-22 09:50 042 12 gusting 24 26.3
2019-Sep-22 09:40 064 10 gusting 27 26.3
2019-Sep-22 09:30 050 20 gusting 29 26.3
2019-Sep-22 09:20 075 19 gusting 25 26.3
2019-Sep-22 09:10 069 13 gusting 27 26.3
2019-Sep-22 09:00 053 8 gusting 21 26.4
2019-Sep-22 08:50 053 16 gusting 22 26.4
2019-Sep-22 08:40 063 17 gusting 26 26.4
2019-Sep-22 08:30 072 12 gusting 23 26.6
2019-Sep-22 08:20 053 14 gusting 24 26.6
2019-Sep-22 08:10 065 17 gusting 19 26.6
2019-Sep-22 08:00 039 17 gusting 23 26.6
2019-Sep-22 07:50 058 11 gusting 22 26.6
2019-Sep-22 07:40 350 14 gusting 22 26.6
2019-Sep-22 07:30 115 6 gusting 23 26.5
2019-Sep-22 07:20 062 11 gusting 25 26.4
2019-Sep-22 07:10 055 25 gusting 25 26.4
2019-Sep-22 07:00 061 18 gusting 22 26.6
2019-Sep-22 06:50 069 19 gusting 22 26.4
2019-Sep-22 06:40 057 11 gusting 26 26.6
2019-Sep-22 06:30 052 15 gusting 20 26.6
2019-Sep-22 06:20 046 14 gusting 26 26.6
2019-Sep-22 06:10 046 19 gusting 23 26.6
2019-Sep-22 06:00 074 4 gusting 21 26.6
2019-Sep-22 05:50 080 15 gusting 24 26.6
2019-Sep-22 05:40 057 16 gusting 20 26.6
2019-Sep-22 05:30 057 10 gusting 23 26.7
2019-Sep-22 05:20 057 12 gusting 20 26.7
2019-Sep-22 05:10 044 8 gusting 23 26.7
2019-Sep-22 05:00 046 16 gusting 22 26.7
2019-Sep-22 04:50 069 7 gusting 25 26.8
2019-Sep-22 04:40 036 12 gusting 24 26.8
2019-Sep-22 04:30 064 7 gusting 25 26.8
2019-Sep-22 04:20 051 9 gusting 23 26.8
2019-Sep-22 04:10 067 18 gusting 23 26.7
2019-Sep-22 04:00 053 10 gusting 24 26.8
2019-Sep-22 03:50 061 13 gusting 26 26.8
2019-Sep-22 03:40 047 20 gusting 33 26.8
2019-Sep-22 03:30 087 6 gusting 22 26.8
2019-Sep-22 03:20 078 13 gusting 25 26.8
2019-Sep-22 03:10 074 11 gusting 25 26.7
2019-Sep-22 03:00 042 12 gusting 27 26.7
2019-Sep-22 02:50 068 3 gusting 23 26.6
2019-Sep-22 02:40 067 12 gusting 23 26.7
2019-Sep-22 02:30 063 4 gusting 29 26.8
2019-Sep-22 02:20 042 22 gusting 28 26.8
2019-Sep-22 02:10 058 17 gusting 34 26.8
2019-Sep-22 02:00 049 14 gusting 28 26.8
2019-Sep-22 01:50 039 16 gusting 31 26.8
2019-Sep-22 01:40 070 19 gusting 30 26.9
2019-Sep-22 01:30 088 18 gusting 27 26.8
2019-Sep-22 01:20 072 17 gusting 26 26.8
2019-Sep-22 01:10 055 22 gusting 27 26.8
2019-Sep-22 01:00 050 27 gusting 27 26.8
2019-Sep-22 00:50 051 15 gusting 28 26.8
2019-Sep-22 00:40 050 18 gusting 26 26.8
2019-Sep-22 00:30 065 16 gusting 25 26.8
2019-Sep-22 00:20 052 21 gusting 27 26.7
2019-Sep-22 00:10 061 14 gusting 27 26.7
2019-Sep-22 00:00 036 14 gusting 31 26.7
2019-Sep-21 23:50 056 16 gusting 28 26.7
2019-Sep-21 23:40 097 10 gusting 24 26.6
2019-Sep-21 23:30 044 13 gusting 24 26.6
2019-Sep-21 23:20 053 14 gusting 29 26.7
2019-Sep-21 23:10 078 15 gusting 29 26.6
2019-Sep-21 23:00 041 24 gusting 27 26.4
2019-Sep-21 22:50 059 8 gusting 25 26.2
2019-Sep-21 22:40 044 17 gusting 24 25.3
2019-Sep-21 22:30 074 4 gusting 16 24.7
2019-Sep-21 22:20 084 11 gusting 18 24.5
2019-Sep-21 22:10 073 7 gusting 15 24.6
2019-Sep-21 22:00 066 6 gusting 21 24.9
2019-Sep-21 21:50 051 10 gusting 19 24.6
2019-Sep-21 21:40 049 7 gusting 12 23.9
2019-Sep-21 21:30 088 6 gusting 12 23.1
2019-Sep-21 21:20 060 9 gusting 22 22.7
2019-Sep-21 21:10 063 13 gusting 31 22.8
2019-Sep-21 21:00 089 18 gusting 27 23.6
2019-Sep-21 20:50 078 18 gusting 31 25.6
2019-Sep-21 20:40 068 14 gusting 23 26.1
2019-Sep-21 20:30 338 9 gusting 29 26.5
2019-Sep-21 20:20 037 22 gusting 28 27.0
2019-Sep-21 20:10 050 22 gusting 30 26.9
2019-Sep-21 20:00 043 19 gusting 29 26.9
2019-Sep-21 19:50 046 25 gusting 28 27.2
2019-Sep-21 19:40 036 10 gusting 25 27.3
2019-Sep-21 19:30 005 10 gusting 25 27.2
2019-Sep-21 19:20 044 22 gusting 26 27.1
2019-Sep-21 19:10 044 17 gusting 26 26.9
2019-Sep-21 19:00 065 24 gusting 26 26.8
2019-Sep-21 18:50 063 21 gusting 26 26.4
2019-Sep-21 18:40 055 13 gusting 22 25.7
2019-Sep-21 18:30 088 18 gusting 33 27.1
2019-Sep-21 18:20 038 21 gusting 26 27.2
2019-Sep-21 18:10 047 9 gusting 28 26.9
2019-Sep-21 18:00 061 16 gusting 32 26.8
2019-Sep-21 17:50 044 20 gusting 26 26.7
2019-Sep-21 17:40 056 14 gusting 27 26.2
2019-Sep-21 17:30 055 25 gusting 28 27.2
2019-Sep-21 17:10 044 22 gusting 26 27.2
2019-Sep-21 17:00 030 12 gusting 30 27.1
2019-Sep-21 16:50 355 13 gusting 31 27.7
2019-Sep-21 16:40 060 24 gusting 30 27.6
2019-Sep-21 16:30 066 14 gusting 29 27.6
2019-Sep-21 16:20 059 13 gusting 32 27.6
2019-Sep-21 16:10 061 10 gusting 28 27.7
2019-Sep-21 16:00 065 8 gusting 29 27.9
2019-Sep-21 15:50 061 11 gusting 27 28.1
2019-Sep-21 15:40 050 19 gusting 26 27.7
2019-Sep-21 15:30 043 13 gusting 29 27.7
2019-Sep-21 15:20 045 13 gusting 25 27.7
2019-Sep-21 15:10 069 18 gusting 24 27.7
2019-Sep-21 15:00 059 8 gusting 22 27.6
2019-Sep-21 14:50 074 12 gusting 24 27.5
2019-Sep-21 14:40 055 6 gusting 22 27.4
2019-Sep-21 14:30 051 11 gusting 27 27.2
2019-Sep-21 14:20 040 12 gusting 23 27.2
2019-Sep-21 14:10 044 12 gusting 27 27.0
2019-Sep-21 14:00 052 15 gusting 24 26.7
2019-Sep-21 13:50 084 8 gusting 25 26.6
2019-Sep-21 13:40 055 11 gusting 23 26.4
2019-Sep-21 13:30 055 9 gusting 19 26.1
2019-Sep-21 13:20 054 17 gusting 24 26.2
2019-Sep-21 13:10 046 12 gusting 23 26.4
2019-Sep-21 13:00 319 7 gusting 26 26.3
2019-Sep-21 12:50 276 6 gusting 20 26.1
2019-Sep-21 12:40 081 12 gusting 23 25.6
2019-Sep-21 12:30 077 11 gusting 19 25.3
2019-Sep-21 12:20 061 23 gusting 27 26.1
2019-Sep-21 12:10 067 13 gusting 18 25.6
2019-Sep-21 12:00 095 6 gusting 25 25.4
2019-Sep-21 11:50 051 14 gusting 27 26.8
2019-Sep-21 11:40 076 13 gusting 19 26.7
2019-Sep-21 11:30 081 8 gusting 18 26.6
2019-Sep-21 11:20 036 10 gusting 22 26.7
2019-Sep-21 11:10 076 15 gusting 19 26.6
2019-Sep-21 10:50 053 13 gusting 19 26.5
2019-Sep-21 10:40 023 11 gusting 16 26.6
2019-Sep-21 10:30 044 13 gusting 22 26.6
2019-Sep-21 10:10 042 16 gusting 21 26.6
2019-Sep-21 10:00 051 20 gusting 22 26.6
2019-Sep-21 09:50 060 10 gusting 21 26.6
2019-Sep-21 09:40 049 11 gusting 19 26.5
2019-Sep-21 09:30 044 19 gusting 24 26.7
2019-Sep-21 09:20 078 10 gusting 21 26.7
2019-Sep-21 09:10 053 17 gusting 25 26.8
2019-Sep-21 09:00 040 21 gusting 26 26.8
2019-Sep-21 08:50 060 18 gusting 26 26.8
2019-Sep-21 08:40 078 16 gusting 25 26.8
2019-Sep-21 08:30 046 6 gusting 23 26.8
2019-Sep-21 08:20 067 10 gusting 26 26.8
2019-Sep-21 08:10 055 16 gusting 25 26.8
2019-Sep-21 08:00 054 11 gusting 23 26.8
2019-Sep-21 07:50 040 16 gusting 26 26.8
2019-Sep-21 07:40 049 17 gusting 26 26.9
2019-Sep-21 07:30 046 12 gusting 22 27.0
2019-Sep-21 07:20 061 14 gusting 29 26.9
2019-Sep-21 07:10 040 16 gusting 30 26.9
2019-Sep-21 07:00 031 11 gusting 26 26.9
2019-Sep-21 06:50 048 14 gusting 28 26.8
2019-Sep-21 06:40 042 19 gusting 28 26.8
2019-Sep-21 06:30 061 24 gusting 26 26.8
2019-Sep-21 06:20 081 13 gusting 30 26.8
2019-Sep-21 06:10 026 16 gusting 33 26.9
2019-Sep-21 06:00 034 23 gusting 32 26.9
2019-Sep-21 05:50 077 11 gusting 35 26.9
2019-Sep-21 05:40 101 15 gusting 30 26.9
2019-Sep-21 05:30 060 23 gusting 30 26.9
2019-Sep-21 05:20 059 12 gusting 26 27.0
2019-Sep-21 05:10 059 19 gusting 27 27.0
2019-Sep-21 05:00 053 11 gusting 33 27.1
2019-Sep-21 04:50 042 21 gusting 33 27.1
2019-Sep-21 04:40 054 27 gusting 34 27.1
2019-Sep-21 04:30 069 19 gusting 35 27.1
2019-Sep-21 04:20 052 26 gusting 28 27.1
2019-Sep-21 04:10 053 17 gusting 31 27.1
2019-Sep-21 04:00 047 26 gusting 30 27.1
2019-Sep-21 03:50 054 19 gusting 29 27.2
2019-Sep-21 03:40 047 25 gusting 32 27.3
2019-Sep-21 03:30 057 18 gusting 29 27.3
2019-Sep-21 03:20 059 29 gusting 34 27.3
2019-Sep-21 03:10 084 18 gusting 26 27.2
2019-Sep-21 03:00 071 26 gusting 33 27.2
2019-Sep-21 02:50 063 20 gusting 35 27.2
2019-Sep-21 02:40 050 21 gusting 33 27.3
2019-Sep-21 02:30 053 28 gusting 32 27.3
2019-Sep-21 02:20 046 22 gusting 33 27.2
2019-Sep-21 02:10 084 16 gusting 29 27.3
2019-Sep-21 02:00 051 26 gusting 32 27.3
2019-Sep-21 01:50 067 19 gusting 33 27.4
2019-Sep-21 01:40 053 18 gusting 35 27.4
2019-Sep-21 01:30 050 19 gusting 34 27.4
2019-Sep-21 01:20 062 15 gusting 32 27.4
2019-Sep-21 01:10 047 21 gusting 37 27.5
2019-Sep-21 01:00 041 21 gusting 30 27.4
2019-Sep-21 00:50 055 16 gusting 29 27.4
2019-Sep-21 00:40 051 24 gusting 30 27.5
2019-Sep-21 00:30 060 15 gusting 27 27.4
2019-Sep-21 00:20 066 19 gusting 31 27.4
2019-Sep-21 00:10 047 20 gusting 29 27.5
2019-Sep-21 00:00 050 23 gusting 27 27.3
2019-Sep-20 23:50 050 20 gusting 25 26.6
2019-Sep-20 23:40 076 14 gusting 25 26.3
2019-Sep-20 23:30 071 18 gusting 24 26.9
2019-Sep-20 23:20 087 13 gusting 27 27.6
2019-Sep-20 23:10 067 21 gusting 31 27.7
2019-Sep-20 23:00 049 17 gusting 32 27.7
2019-Sep-20 22:50 086 13 gusting 37 27.7
2019-Sep-20 22:40 054 17 gusting 28 27.7
2019-Sep-20 22:30 061 19 gusting 36 27.8
2019-Sep-20 22:20 039 14 gusting 32 27.7
2019-Sep-20 22:10 061 19 gusting 34 27.4
2019-Sep-20 22:00 078 26 gusting 32 27.6
2019-Sep-20 21:50 012 23 gusting 33 27.6
2019-Sep-20 21:40 094 22 gusting 33 27.7
2019-Sep-20 21:30 077 23 gusting 25 27.8
2019-Sep-20 21:20 074 21 gusting 30 27.7
2019-Sep-20 21:10 085 19 gusting 30 27.8
2019-Sep-20 21:00 088 27 gusting 27 27.9
2019-Sep-20 20:50 069 21 gusting 26 27.7
2019-Sep-20 20:40 053 25 gusting 31 27.7
2019-Sep-20 20:30 046 22 gusting 32 27.8
2019-Sep-20 20:20 049 14 gusting 29 27.8
2019-Sep-20 20:10 050 25 gusting 28 27.9
2019-Sep-20 20:00 050 8 gusting 26 28.1
2019-Sep-20 19:50 065 16 gusting 29 27.9
2019-Sep-20 19:40 051 20 gusting 27 28.4
2019-Sep-20 19:30 053 19 gusting 26 28.3
2019-Sep-20 19:20 055 17 gusting 26 28.2
2019-Sep-20 19:10 057 17 gusting 22 28.2
2019-Sep-20 19:00 074 22 gusting 29 27.8
2019-Sep-20 18:50 067 20 gusting 27 28.0
2019-Sep-20 18:40 095 12 gusting 23 27.9
2019-Sep-20 18:30 042 14 gusting 19 28.2
2019-Sep-20 18:20 082 18 gusting 28 28.3
2019-Sep-20 18:10 051 11 gusting 23 28.4
2019-Sep-20 18:00 076 8 gusting 32 27.9
2019-Sep-20 17:50 079 24 gusting 31 27.2
2019-Sep-20 17:40 355 7 gusting 28 26.5
2019-Sep-20 17:30 058 10 gusting 26 26.6
2019-Sep-20 17:20 062 25 gusting 28 27.5
2019-Sep-20 17:10 066 14 gusting 29 27.4
2019-Sep-20 17:00 063 19 gusting 30 27.2
2019-Sep-20 16:50 082 13 gusting 26 26.8
2019-Sep-20 16:40 071 19 gusting 27 26.0
2019-Sep-20 16:30 057 20 gusting 38 27.4
2019-Sep-20 16:20 069 11 gusting 20 28.3
2019-Sep-20 16:10 059 13 gusting 23 28.2
2019-Sep-20 16:00 065 11 gusting 23 28.1